| time (UTC) | temp F | wind direction | speed MPH | gust MPH | rain 1hr in | rain 24hr in | rain mn in | humidity % | barometer mb |
| 20260906113037 | 61 | 217 | 4.0 | 10.0 | 0.00 | 0.00 | 0.00 | 66 | 1020.2 |
| 20260906111543 | 62 | 182 | 3.0 | 9.0 | 0.00 | 0.00 | 0.00 | 66 | 1020.1 |
| 20260906110036 | 62 | 132 | 4.0 | 9.0 | 0.00 | 0.00 | 0.00 | 67 | 1020.1 |
| 20260906103034 | 61 | 161 | 2.0 | 7.0 | 0.00 | 0.00 | 0.00 | 67 | 1020.1 |
| 20260906101536 | 61 | 233 | 3.0 | 7.0 | 0.00 | 0.00 | 0.00 | 68 | 1020.1 |
| 20260906100035 | 61 | 232 | 2.0 | 10.0 | 0.00 | 0.00 | 0.00 | 67 | 1020.1 |
| 20260906093026 | 61 | 260 | 3.0 | 9.0 | 0.00 | 0.00 | 0.00 | 71 | 1020.0 |
| 20260906091526 | 61 | 175 | 3.0 | 9.0 | 0.00 | 0.00 | 0.00 | 73 | 1020.0 |
| 20260906090020 | 60 | 297 | 1.0 | 9.0 | 0.00 | 0.00 | 0.00 | 73 | 1019.9 |
| 20260906083015 | 60 | 232 | 3.0 | 10.0 | 0.00 | 0.00 | 0.00 | 73 | 1019.9 |
| 20260906081514 | 60 | 215 | 2.0 | 11.0 | 0.00 | 0.00 | 0.00 | 74 | 1019.6 |
| 20260906080008 | 60 | 163 | 3.0 | 8.0 | 0.00 | 0.00 | 0.00 | 76 | 1019.4 |
| 20260906073005 | 57 | 213 | 2.0 | 6.0 | 0.00 | 0.01 | 0.00 | 81 | 1019.2 |
| 20260906071557 | 56 | 174 | 2.0 | 6.0 | 0.00 | 0.01 | 0.00 | 84 | 1019.3 |
| 20260906070055 | 55 | 186 | 1.0 | 6.0 | 0.00 | 0.01 | 0.00 | 85 | 1019.2 |
| 20260906063053 | 53 | 188 | 1.0 | 7.0 | 0.00 | 0.02 | 0.00 | 90 | 1019.3 |
| 20260906061553 | 52 | 200 | 1.0 | 6.0 | 0.00 | 0.02 | 0.00 | 91 | 1019.1 |
| 20260906060114 | 52 | 178 | 2.0 | 9.0 | 0.00 | 0.02 | 0.00 | 92 | 1019.1 |
| 20260906053050 | 51 | 202 | 0.0 | 2.0 | 0.00 | 0.02 | 0.00 | 91 | 1018.7 |
| 20260906051550 | 51 | 208 | 0.0 | 3.0 | 0.00 | 0.02 | 0.00 | 91 | 1018.6 |
| 20260906050048 | 51 | 199 | 1.0 | 5.0 | 0.00 | 0.02 | 0.00 | 91 | 1018.5 |
| 20260906043045 | 51 | 163 | 1.0 | 5.0 | 0.00 | 0.02 | 0.00 | 91 | 1018.4 |
| 20260906041543 | 51 | 158 | 0.0 | 3.0 | 0.00 | 0.02 | 0.00 | 90 | 1018.1 |
| 20260906040041 | 51 | 227 | 0.0 | 5.0 | 0.00 | 0.02 | 0.00 | 90 | 1017.9 |
| 20260906033040 | 51 | 190 | 0.0 | 3.0 | 0.00 | 0.02 | 0.00 | 88 | 1017.8 |
| 20260906031535 | 52 | 204 | 0.0 | 4.0 | 0.00 | 0.02 | 0.00 | 87 | 1017.4 |
| 20260906030033 | 52 | 218 | 1.0 | 5.0 | 0.00 | 0.02 | 0.00 | 88 | 1017.3 |
| 20260906023032 | 52 | 187 | 0.0 | 5.0 | 0.00 | 0.02 | 0.00 | 87 | 1017.2 |
| 20260906021537 | 52 | 210 | 1.0 | 5.0 | 0.00 | 0.02 | 0.00 | 86 | 1017.0 |
| 20260906020026 | 52 | 184 | 1.0 | 4.0 | 0.00 | 0.02 | 0.00 | 85 | 1017.0 |
| 20260906013024 | 53 | 194 | 1.0 | 6.0 | 0.00 | 0.02 | 0.00 | 84 | 1016.8 |
| 20260906011523 | 53 | 215 | 1.0 | 5.0 | 0.00 | 0.02 | 0.00 | 84 | 1016.8 |
| 20260906010021 | 53 | 191 | 1.0 | 6.0 | 0.00 | 0.02 | 0.00 | 82 | 1016.6 |
| 20260906003017 | 55 | 190 | 0.0 | 7.0 | 0.00 | 0.02 | 0.00 | 82 | 1016.2 |
| 20260906001528 | 54 | 167 | 1.0 | 5.0 | 0.00 | 0.02 | 0.00 | 83 | 1016.0 |
| 20260906000014 | 54 | 193 | 1.0 | 9.0 | 0.00 | 0.02 | 0.00 | 84 | 1015.9 |
| 20260905233007 | 54 | 168 | 1.0 | 7.0 | 0.00 | 0.02 | 0.00 | 85 | 1015.4 |
| 20260905231512 | 54 | 188 | 1.0 | 7.0 | 0.00 | 0.02 | 0.00 | 85 | 1015.3 |
| 20260905230004 | 54 | 190 | 2.0 | 6.0 | 0.00 | 0.02 | 0.00 | 85 | 1015.1 |
| 20260905223004 | 54 | 175 | 1.0 | 6.0 | 0.00 | 0.03 | 0.00 | 85 | 1014.7 |
| 20260905221602 | 55 | 154 | 2.0 | 6.0 | 0.00 | 0.03 | 0.00 | 85 | 1014.5 |
| 20260905220059 | 55 | 185 | 1.0 | 6.0 | 0.00 | 0.03 | 0.00 | 85 | 1014.3 |
| 20260905214656 | 56 | 215 | 1.0 | 9.0 | 0.00 | 0.03 | 0.03 | 84 | 1014.0 |
| 20260905213053 | 56 | 201 | 1.0 | 7.0 | 0.00 | 0.03 | 0.03 | 83 | 1013.9 |
| 20260905211552 | 56 | 238 | 2.0 | 8.0 | 0.00 | 0.03 | 0.03 | 83 | 1013.5 |
| 20260905210106 | 56 | 172 | 3.0 | 10.0 | 0.00 | 0.03 | 0.03 | 83 | 1013.3 |
| 20260905204649 | 56 | 236 | 1.0 | 8.0 | 0.00 | 0.03 | 0.03 | 83 | 1013.0 |
| 20260905203047 | 56 | 191 | 2.0 | 8.0 | 0.00 | 0.03 | 0.03 | 83 | 1012.9 |
| 20260905201545 | 56 | 203 | 2.0 | 11.0 | 0.00 | 0.03 | 0.03 | 83 | 1012.6 |
| 20260905200109 | 57 | 187 | 2.0 | 9.0 | 0.00 | 0.03 | 0.03 | 82 | 1012.4 |
| 20260905194641 | 57 | 216 | 2.0 | 9.0 | 0.00 | 0.03 | 0.03 | 82 | 1012.2 |
| 20260905193041 | 57 | 185 | 2.0 | 6.0 | 0.00 | 0.03 | 0.03 | 82 | 1012.0 |
| 20260905191537 | 57 | 185 | 2.0 | 11.0 | 0.00 | 0.03 | 0.03 | 83 | 1011.7 |
| 20260905190035 | 57 | 175 | 2.0 | 9.0 | 0.00 | 0.03 | 0.03 | 83 | 1011.5 |
| 20260905184634 | 58 | 199 | 3.0 | 11.0 | 0.00 | 0.05 | 0.03 | 84 | 1011.2 |
| 20260905183040 | 58 | 197 | 3.0 | 7.0 | 0.00 | 0.05 | 0.03 | 84 | 1010.9 |
| 20260905181538 | 58 | 178 | 3.0 | 9.0 | 0.00 | 0.05 | 0.03 | 84 | 1010.6 |
| 20260905180038 | 58 | 206 | 3.0 | 10.0 | 0.00 | 0.05 | 0.03 | 84 | 1010.3 |
| 20260905174628 | 59 | 219 | 2.0 | 6.0 | 0.00 | 0.14 | 0.03 | 82 | 1010.1 |
| 20260905173039 | 59 | 171 | 2.0 | 11.0 | 0.00 | 0.14 | 0.03 | 82 | 1009.9 |
| 20260905171524 | 60 | 196 | 2.0 | 10.0 | 0.00 | 0.14 | 0.03 | 82 | 1009.5 |
| 20260905170022 | 60 | 204 | 2.0 | 10.0 | 0.00 | 0.14 | 0.03 | 81 | 1009.2 |
| 20260905164620 | 60 | 171 | 1.0 | 9.0 | 0.00 | 0.26 | 0.03 | 80 | 1008.7 |
| 20260905163019 | 60 | 211 | 1.0 | 9.0 | 0.00 | 0.26 | 0.03 | 80 | 1008.6 |
| 20260905161518 | 60 | 237 | 2.0 | 10.0 | 0.00 | 0.26 | 0.03 | 81 | 1008.2 |
| 20260905160015 | 61 | 199 | 2.0 | 10.0 | 0.00 | 0.26 | 0.03 | 79 | 1008.0 |
| 20260905154616 | 61 | 221 | 2.0 | 13.0 | 0.00 | 0.35 | 0.03 | 80 | 1007.7 |
| 20260905153019 | 61 | 227 | 4.0 | 11.0 | 0.00 | 0.35 | 0.03 | 79 | 1007.6 |
| 20260905151510 | 62 | 236 | 5.0 | 13.0 | 0.00 | 0.35 | 0.03 | 76 | 1007.4 |
| 20260905150006 | 63 | 204 | 4.0 | 13.0 | 0.00 | 0.35 | 0.03 | 74 | 1006.9 |
| 20260905144606 | 64 | 223 | 4.0 | 11.0 | 0.00 | 0.35 | 0.03 | 72 | 1006.5 |
| 20260905143005 | 63 | 175 | 4.0 | 17.0 | 0.00 | 0.35 | 0.03 | 72 | 1006.1 |
| 20260905141504 | 63 | 251 | 6.0 | 18.0 | 0.00 | 0.35 | 0.03 | 74 | 1005.9 |
| 20260905140002 | 63 | 239 | 4.0 | 12.0 | 0.00 | 0.35 | 0.03 | 74 | 1005.5 |
| 20260905134601 | 64 | 212 | 4.0 | 18.0 | 0.00 | 0.35 | 0.03 | 73 | 1005.2 |
| 20260905133058 | 64 | 169 | 3.0 | 10.0 | 0.00 | 0.35 | 0.03 | 74 | 1005.1 |
| 20260905131604 | 63 | 209 | 4.0 | 14.0 | 0.00 | 0.35 | 0.03 | 76 | 1005.0 |
| 20260905130053 | 63 | 195 | 5.0 | 12.0 | 0.00 | 0.35 | 0.03 | 78 | 1004.7 |
| 20260905124554 | 62 | 192 | 5.0 | 11.0 | 0.00 | 0.35 | 0.03 | 78 | 1004.5 |
| 20260905123106 | 62 | 206 | 4.0 | 10.0 | 0.00 | 0.35 | 0.03 | 79 | 1004.5 |
| 20260905121549 | 61 | 216 | 3.0 | 11.0 | 0.00 | 0.35 | 0.03 | 80 | 1004.4 |
| 20260905120047 | 61 | 215 | 3.0 | 11.0 | 0.00 | 0.35 | 0.03 | 83 | 1004.1 |
| 20260905114547 | 61 | 236 | 2.0 | 9.0 | 0.00 | 0.35 | 0.03 | 81 | 1003.9 |